Time,TemperatureF,DewpointF,PressureIn,WindDirection,WindDirectionDegrees,WindSpeedMPH,WindSpeedGustMPH,Humidity,HourlyPrecipIn,Conditions,Clouds,dailyrainin,SoftwareType,DateUTC
2013-06-26 00:02:00,-999.0,-99.9,-100.00,NNE,32,0.0,-999.0,-999,0.00,,,0.16,,2013-06-26 04:02:00,
2013-06-26 00:12:00,-999.0,-99.9,-100.00,NNE,32,0.0,-999.0,-999,0.00,,,0.16,,2013-06-26 04:12:00,
2013-06-26 00:43:00,77.0,74.0,-100.00,East,95,3.0,6.0,92,0.00,,,0.16,,2013-06-26 04:43:00,
2013-06-26 00:53:00,77.0,74.0,-100.00,East,95,3.0,6.0,92,0.00,,,0.16,,2013-06-26 04:53:00,
2013-06-26 01:02:00,77.0,74.0,-100.00,East,95,3.0,6.0,92,0.00,,,0.16,,2013-06-26 05:02:00,
2013-06-26 01:11:00,77.0,74.0,-100.00,East,95,3.0,6.0,92,0.00,,,0.16,,2013-06-26 05:11:00,
2013-06-26 01:43:00,76.0,73.0,-100.00,East,101,0.0,7.0,91,0.00,,,0.16,,2013-06-26 05:43:00,
2013-06-26 01:52:00,76.0,73.0,-100.00,East,101,0.0,7.0,91,0.00,,,0.16,,2013-06-26 05:52:00,
2013-06-26 02:02:00,76.0,73.0,-100.00,East,101,0.0,7.0,91,0.00,,,0.16,,2013-06-26 06:02:00,
2013-06-26 02:11:00,76.0,73.0,-100.00,East,101,0.0,7.0,91,0.00,,,0.16,,2013-06-26 06:11:00,
2013-06-26 04:43:00,76.0,73.0,-100.00,ESE,117,3.0,-999.0,90,-99.99,,,-99.99,,2013-06-26 08:43:00,
2013-06-26 04:53:00,76.0,73.0,-100.00,ESE,117,3.0,-999.0,90,-99.99,,,-99.99,,2013-06-26 08:53:00,
2013-06-26 05:01:00,76.0,73.0,-100.00,ESE,117,3.0,-999.0,90,-99.99,,,-99.99,,2013-06-26 09:01:00,
2013-06-26 05:11:00,76.0,73.0,-100.00,ESE,117,3.0,-999.0,90,-99.99,,,-99.99,,2013-06-26 09:11:00,
2013-06-26 07:44:00,79.0,-99.9,-100.00,East,92,4.0,-999.0,-999,-99.99,,,0.16,,2013-06-26 11:44:00,
2013-06-26 07:52:00,79.0,-99.9,-100.00,East,92,4.0,-999.0,-999,-99.99,,,0.16,,2013-06-26 11:52:00,
2013-06-26 08:02:00,79.0,-99.9,-100.00,East,92,4.0,-999.0,-999,-99.99,,,0.16,,2013-06-26 12:02:00,
2013-06-26 08:12:00,79.0,-99.9,-100.00,East,92,4.0,-999.0,-999,-99.99,,,0.16,,2013-06-26 12:12:00,
2013-06-26 09:53:00,82.0,76.0,-100.00,ESE,122,6.0,10.0,82,-99.99,,,0.16,,2013-06-26 13:53:00,
2013-06-26 10:02:00,82.0,76.0,-100.00,ESE,122,6.0,10.0,82,-99.99,,,0.16,,2013-06-26 14:02:00,
2013-06-26 10:12:00,82.0,76.0,-100.00,ESE,122,6.0,10.0,82,-99.99,,,0.16,,2013-06-26 14:12:00,
2013-06-26 10:42:00,83.0,75.0,-100.00,ESE,119,6.0,11.0,78,0.00,,,0.16,,2013-06-26 14:42:00,
2013-06-26 10:53:00,83.0,75.0,-100.00,ESE,119,6.0,11.0,78,0.00,,,0.16,,2013-06-26 14:53:00,
2013-06-26 11:02:00,83.0,75.0,-100.00,ESE,119,6.0,11.0,78,0.00,,,0.16,,2013-06-26 15:02:00,
2013-06-26 11:12:00,83.0,75.0,-100.00,ESE,119,6.0,11.0,78,0.00,,,0.16,,2013-06-26 15:12:00,
2013-06-26 11:44:00,86.0,-99.9,-100.00,ESE,121,5.0,-999.0,-999,0.00,,,0.16,,2013-06-26 15:44:00,
2013-06-26 11:53:00,86.0,-99.9,-100.00,ESE,121,5.0,-999.0,-999,0.00,,,0.16,,2013-06-26 15:53:00,
2013-06-26 12:02:00,86.0,-99.9,-100.00,ESE,121,5.0,-999.0,-999,0.00,,,0.16,,2013-06-26 16:02:00,
2013-06-26 12:12:00,86.0,-99.9,-100.00,ESE,121,5.0,-999.0,-999,0.00,,,0.16,,2013-06-26 16:12:00,
2013-06-26 12:43:00,89.0,77.0,-100.00,SSE,149,4.0,10.0,67,0.00,,,0.16,,2013-06-26 16:43:00,
2013-06-26 12:52:00,89.0,77.0,-100.00,SSE,149,4.0,10.0,67,0.00,,,0.16,,2013-06-26 16:52:00,
2013-06-26 13:02:00,89.0,77.0,-100.00,SSE,149,4.0,10.0,67,0.00,,,0.16,,2013-06-26 17:02:00,
2013-06-26 13:11:00,89.0,77.0,-100.00,SSE,149,4.0,10.0,67,0.00,,,0.16,,2013-06-26 17:11:00,
2013-06-26 13:43:00,90.0,77.0,-100.00,South,188,5.0,11.0,65,0.00,,,0.16,,2013-06-26 17:43:00,
2013-06-26 13:52:00,90.0,77.0,-100.00,South,188,5.0,11.0,65,0.00,,,0.16,,2013-06-26 17:52:00,
2013-06-26 14:01:00,90.0,77.0,-100.00,South,188,5.0,11.0,65,0.00,,,0.16,,2013-06-26 18:01:00,
2013-06-26 14:12:00,90.0,77.0,-100.00,South,188,5.0,11.0,65,0.00,,,0.16,,2013-06-26 18:12:00,
2013-06-26 14:43:00,90.0,76.0,-100.00,South,189,6.0,13.0,64,0.00,,,0.16,,2013-06-26 18:43:00,
2013-06-26 14:52:00,90.0,76.0,-100.00,South,189,6.0,13.0,64,0.00,,,0.16,,2013-06-26 18:52:00,
2013-06-26 15:02:00,90.0,76.0,-100.00,South,189,6.0,13.0,64,0.00,,,0.16,,2013-06-26 19:02:00,
2013-06-26 15:11:00,90.0,76.0,-100.00,South,189,6.0,13.0,64,0.00,,,0.16,,2013-06-26 19:11:00,
2013-06-26 15:52:00,82.0,69.0,-100.00,ESE,110,9.0,16.0,65,0.00,,,0.16,,2013-06-26 19:52:00,
2013-06-26 16:02:00,82.0,69.0,-100.00,ESE,110,9.0,16.0,65,0.00,,,0.16,,2013-06-26 20:02:00,
2013-06-26 16:12:00,82.0,69.0,-100.00,ESE,110,9.0,16.0,65,0.00,,,0.16,,2013-06-26 20:12:00,
2013-06-26 20:43:00,79.0,72.0,-100.00,ESE,109,6.0,18.0,79,-99.99,,,-99.99,,2013-06-27 00:43:00,
2013-06-26 20:53:00,79.0,72.0,-100.00,ESE,109,6.0,18.0,79,-99.99,,,-99.99,,2013-06-27 00:53:00,
2013-06-26 21:01:00,79.0,72.0,-100.00,ESE,109,6.0,18.0,79,-99.99,,,-99.99,,2013-06-27 01:01:00,
2013-06-26 21:11:00,79.0,72.0,-100.00,ESE,109,6.0,18.0,79,-99.99,,,-99.99,,2013-06-27 01:11:00,
2013-06-26 21:43:00,78.0,72.0,-100.00,SSE,162,7.0,17.0,83,0.00,,,0.00,,2013-06-27 01:43:00,
2013-06-26 21:53:00,78.0,72.0,-100.00,SSE,162,7.0,17.0,83,0.00,,,0.00,,2013-06-27 01:53:00,
2013-06-26 22:01:00,78.0,72.0,-100.00,SSE,162,7.0,17.0,83,0.00,,,0.00,,2013-06-27 02:01:00,
2013-06-26 22:11:00,78.0,72.0,-100.00,SSE,162,7.0,17.0,83,0.00,,,0.00,,2013-06-27 02:11:00,
2013-06-26 22:42:00,78.0,73.0,-100.00,South,173,5.0,18.0,84,0.00,,,0.00,,2013-06-27 02:42:00,
2013-06-26 22:52:00,78.0,73.0,-100.00,South,173,5.0,18.0,84,0.00,,,0.00,,2013-06-27 02:52:00,
2013-06-26 23:02:00,78.0,73.0,-100.00,South,173,5.0,18.0,84,0.00,,,0.00,,2013-06-27 03:02:00,
2013-06-26 23:11:00,78.0,73.0,-100.00,South,173,5.0,18.0,84,0.00,,,0.00,,2013-06-27 03:11:00,